Regional Weather Roundup
Issued by NWS

Home | Current Version | Previous Version | Text Only | Print | Product List | Glossary Off
Versions: 1 2 3 4 5 6 7 8 9 10 11 12 13 14 15 16 17 18 19 20 21 22 23 24 25 26 27 28 29 30 31 32 33 34 35 36 37 38 39 40 41 42 43 44 45 46 47 48 49 50

000
ASUS43 KDTX 220901
RWRMI
MICHIGAN HOURLY REGIONAL WEATHER ROUNDUP
NATIONAL WEATHER SERVICE DETROIT/PONTIAC MI
500 AM EDT TUE JUL 22 2014

NOTE: "FAIR" INDICATES FEW OR NO CLOUDS BELOW 12,000 FEET WITH NO
SIGNIFICANT WEATHER AND/OR OBSTRUCTION TO VISIBILITY.

MIZ047>049-052>055-059>063-066>070-074>076-081>083-221000-
SOUTHEAST LOWER MICHIGAN

CITY           SKY/WX    TMP DP  RH WIND       PRES   REMARKS
ADRIAN         CLEAR     62  58  86 CALM      30.12R
ALMA           CLEAR     65  62  88 S5        30.07F
ANN ARBOR      FOG       56  54  93 CALM      30.11F VSB 1/4
BAD AXE        CLEAR     64  57  79 S5        30.09F
CARO           CLEAR     61  61  99 CALM      30.08S
DETROIT CITY   CLEAR     68  59  73 CALM      30.11R
DETROIT        PTCLDY    66  62  87 CALM      30.12R FOG
FLINT          CLEAR     67  59  75 S5        30.09F
GROSSE ILE     CLEAR     70  64  83 CALM      30.10R
HILLSDALE      CLEAR     64  63  97 S3        30.12S
HOWELL         CLEAR     64  59  85 S3        30.10S

CITY           SKY/WX    TMP DP  RH WIND       PRES   REMARKS
JACKSON        CLEAR     65  59  81 CALM      30.11S
LAMBERTVILLE   CLEAR     63  59  88 CALM      30.12R
LANSING        CLEAR     67  60  78 S6        30.09F
LAPEER         FAIR      59  57  94 CALM      30.10F
MASON          CLEAR     64  59  82 S5        30.10S
MONROE         CLEAR     63  61  94 CALM      30.09S
MT. CLEMENS    CLEAR     62  58  87 S2        30.10S
PONTIAC        CLEAR     65  58  78 CALM      30.11F
PORT HOPE        N/A     69  57  65 SW5       30.06F
PORT HURON     FOG       55  55 100 CALM      30.11S VSB 1/4
TRI CITIES     CLEAR     68  60  75 S7        30.08S
TROY           CLEAR     66  57  73 CALM      30.12F
SAGINAW HB     CLEAR     64  61  88 S5        30.07F
$$
MIZ043>046-050>051-056>058-064>065-071>073-077>080-221000-
SOUTHWEST LOWER MICHIGAN

CITY           SKY/WX    TMP DP  RH WIND       PRES   REMARKS
BATTLE CREEK   CLEAR     67  63  87 S3        30.10S
BENTON HARBOR  CLEAR     64  62  93 SE3       30.07S
BIG RAPIDS     CLEAR     61  61 100 E7        30.05F FOG
COLDWATER      CLEAR     68  64  86 SE5       30.10F
FREMONT        FAIR      65  64  96 CALM      30.04S
HOLLAND        CLEAR     66  64  93 S5        30.07S FOG
GRAND RAPIDS   CLEAR     67  64  90 S7        30.07S
IONIA          FAIR      62  61  96 CALM      30.07S
KALAMAZOO      CLEAR     64  62  93 SE5       30.09S
LUDINGTON      CLEAR     72  65  79 S9        30.02S
MARSHALL       CLEAR     65  61  87 S3        30.09S
MOUNT PLEASANT CLEAR     67  64  91 CALM      30.06S
MUSKEGON       CLEAR     69  63  81 S8        30.04F
SOUTH HAVEN    CLEAR     63  63 100 CALM      30.06F FOG
$$
MIZ016>042-221000-
NORTHERN LOWER MICHIGAN

CITY           SKY/WX    TMP DP  RH WIND       PRES   REMARKS
ALPENA         PTCLDY    66  63  90 SW5       30.04S
BEAVER ISLAND  CLEAR     69  62  79 S7        29.98S
BELLAIRE       CLEAR     64  62  91 CALM      30.01S
CADILLAC       CLEAR     66  63  90 S5        30.05F
CHARLEVOIX     CLEAR     70  63  79 S6        30.02F
FRANKFORT      CLEAR     74  63  68 S7G16     30.01R
GAYLORD        CLEAR     73  61  65 SW8       30.04F
GRAYLING       CLEAR     59  59 100 CALM      30.05F FOG
HARBOR SPRINGS CLEAR     66  62  86 CALM      30.00F
HOUGHTON LAKE  CLEAR     60  59  96 S3        30.06F FOG
MANISTEE       CLEAR     66  61  82 E3        30.02S
OSCODA         CLEAR     67  64  91 SW5       30.06R FOG
PELLSTON       CLEAR     62  61  96 S3        30.00F
ROGERS CITY    MOCLDY    69  64  84 S6        30.02F
TRAVERSE CITY  CLEAR     69  61  75 CALM      29.99F
$$
MIZ007>008-015-221000-
EASTERN UPPER MICHIGAN

CITY           SKY/WX    TMP DP  RH WIND       PRES   REMARKS
KINROSS        MOCLDY    64  63  94 SE5       30.01R
MACKINAC ISLAN CLEAR     67  63  87 S7        30.00S
NEWBERRY       CLEAR     60  58  92 SE3       29.96F
S. S. MARIE    MOCLDY    64  59  83 E3        30.00S
MUNISING         N/A     70  61  73 S7        29.87F
$$
MIZ004>006-011>014-085-221000-
CENTRAL UPPER MICHIGAN

CITY           SKY/WX    TMP DP  RH WIND       PRES   REMARKS
MANISTIQUE     CLEAR     61  59  95 S3        29.94F
ESCANABA       PTCLDY    64  61  88 S6        29.91F
MENOMINEE      CLEAR     72  64  78 SW12      29.92F
SAWYER-GWINN   MOCLDY    67  64  90 S12       29.89F
$$
MIZ001>003-009>011-084-221000-
WESTERN UPPER MICHIGAN

CITY           SKY/WX    TMP DP  RH WIND       PRES   REMARKS
IRON MOUNTAIN  MOCLDY    70  67  90 SE9       29.88F FOG
HOUGHTON       CLOUDY    73  67  81 S10       29.83S
IRONWOOD       CLOUDY    70  63  78 SW18G24   29.83S THUNDER
$$

ABBREVIATIONS USED IN REMARKS
   TC - TEMPERATURE IN CELSIUS
  WCI - WIND CHILL INDEX
   HX - HEAT INDEX
  VSB - VISIBILITY



USA.gov is the U.S. government's official web portal to all federal, state and local government web resources and services.